Hourly Weather Celaya

Today, 13 June, Sunday

Time Temperature Precipitation Wind Pressure Humidity
00:00 +18°C° 0.5 mm 2 mps 618 mmHg 81%
01:00 +19°C° 0.5 mm 1 mps 618 mmHg 83%
02:00 +19°C° 0.5 mm 1 mps 617 mmHg 85%
03:00 +19°C° 0.9 mm 1 mps 617 mmHg 87%
04:00 +18°C° 0.9 mm 1 mps 617 mmHg 88%
05:00 +18°C° 0.9 mm 1 mps 617 mmHg 89%
06:00 +19°C° 0.3 mm 1 mps 618 mmHg 86%
07:00 +18°C° 0.3 mm 2 mps 619 mmHg 82%
08:00 +19°C° 0.3 mm 2 mps 619 mmHg 79%
09:00 +21°C° 0.1 mm 2 mps 619 mmHg 71%
10:00 +24°C° 0.1 mm 3 mps 619 mmHg 62%
11:00 +26°C° 0.1 mm 3 mps 620 mmHg 54%
12:00 +26°C° 0.2 mm 3 mps 619 mmHg 51%
13:00 +27°C° 0.2 mm 3 mps 619 mmHg 49%
14:00 +27°C° 0.2 mm 3 mps 618 mmHg 46%
15:00 +26°C° 0.3 mm 3 mps 618 mmHg 52%
16:00 +25°C° 0.3 mm 3 mps 618 mmHg 58%
17:00 +22°C° 0.3 mm 4 mps 617 mmHg 65%
18:00 +21°C° 0.5 mm 3 mps 617 mmHg 68%
19:00 +21°C° 0.5 mm 3 mps 618 mmHg 72%
20:00 +20°C° 0.5 mm 3 mps 618 mmHg 76%
21:00 +20°C° 0.6 mm 2 mps 618 mmHg 77%
22:00 +19°C° 0.6 mm 2 mps 618 mmHg 79%
23:00 +19°C° 0.6 mm 2 mps 619 mmHg 80%

Tomorrow, 14 June, Monday

Time Temperature Precipitation Wind Pressure Humidity
00:00 +19°C° 0.2 mm 2 mps 618 mmHg 81%
01:00 +19°C° 0.2 mm 2 mps 618 mmHg 81%
02:00 +19°C° 0.2 mm 2 mps 618 mmHg 82%
03:00 +18°C° 0 mm 2 mps 617 mmHg 84%
04:00 +18°C° 0 mm 2 mps 617 mmHg 85%
05:00 +17°C° 0 mm 2 mps 617 mmHg 87%
06:00 +18°C° 0 mm 2 mps 618 mmHg 80%
07:00 +20°C° 0 mm 3 mps 619 mmHg 73%
08:00 +21°C° 0 mm 3 mps 619 mmHg 66%
09:00 +22°C° 0 mm 3 mps 619 mmHg 59%
10:00 +25°C° 0 mm 3 mps 619 mmHg 52%
11:00 +27°C° 0 mm 4 mps 619 mmHg 45%
12:00 +28°C° 0 mm 4 mps 619 mmHg 43%
13:00 +28°C° 0 mm 4 mps 618 mmHg 41%
14:00 +29°C° 0 mm 4 mps 618 mmHg 39%
15:00 +27°C° 0.1 mm 4 mps 618 mmHg 44%
16:00 +26°C° 0.1 mm 4 mps 617 mmHg 49%
17:00 +25°C° 0.1 mm 4 mps 617 mmHg 53%
18:00 +23°C° 0.1 mm 4 mps 617 mmHg 57%
19:00 +22°C° 0.1 mm 4 mps 618 mmHg 60%
20:00 +21°C° 0.1 mm 3 mps 618 mmHg 64%
21:00 +20°C° 0 mm 3 mps 618 mmHg 66%
22:00 +20°C° 0 mm 3 mps 618 mmHg 69%
23:00 +19°C° 0 mm 3 mps 618 mmHg 71%

Day after tomorrow, 15 June, Tuesday

Time Temperature Precipitation Wind Pressure Humidity
00:00 +18°C° 0 mm 3 mps 618 mmHg 74%
01:00 +18°C° 0 mm 3 mps 617 mmHg 76%
02:00 +17°C° 0 mm 2 mps 617 mmHg 78%
03:00 +17°C° 0 mm 2 mps 617 mmHg 80%
04:00 +16°C° 0 mm 2 mps 617 mmHg 82%
05:00 +16°C° 0 mm 2 mps 617 mmHg 83%
06:00 +18°C° 0 mm 2 mps 618 mmHg 71%
07:00 +20°C° 0 mm 3 mps 619 mmHg 58%
08:00 +22°C° 0 mm 3 mps 619 mmHg 45%
09:00 +23°C° 0 mm 4 mps 620 mmHg 39%
10:00 +26°C° 0 mm 4 mps 620 mmHg 34%
11:00 +28°C° 0 mm 4 mps 620 mmHg 28%
12:00 +29°C° 0 mm 4 mps 620 mmHg 27%
13:00 +29°C° 0 mm 5 mps 619 mmHg 26%
14:00 +30°C° 0 mm 5 mps 619 mmHg 25%
15:00 +29°C° 0 mm 5 mps 619 mmHg 27%
16:00 +29°C° 0 mm 6 mps 618 mmHg 30%
17:00 +28°C° 0 mm 6 mps 618 mmHg 33%
18:00 +26°C° 0 mm 5 mps 618 mmHg 41%
19:00 +23°C° 0 mm 5 mps 618 mmHg 48%
20:00 +21°C° 0 mm 4 mps 618 mmHg 56%
21:00 +20°C° 0 mm 3 mps 618 mmHg 60%
22:00 +19°C° 0 mm 3 mps 618 mmHg 64%
23:00 +18°C° 0 mm 2 mps 618 mmHg 67%

16 June, Wednesday

Time Temperature Precipitation Wind Pressure Humidity
00:00 +18°C° 0 mm 2 mps 618 mmHg 71%
01:00 +17°C° 0 mm 2 mps 618 mmHg 74%
02:00 +17°C° 0 mm 2 mps 617 mmHg 78%
03:00 +16°C° 0 mm 2 mps 617 mmHg 80%
04:00 +16°C° 0 mm 2 mps 617 mmHg 82%
05:00 +16°C° 0 mm 2 mps 617 mmHg 84%
06:00 +18°C° 0 mm 3 mps 618 mmHg 75%
07:00 +20°C° 0 mm 3 mps 619 mmHg 65%
08:00 +21°C° 0 mm 4 mps 619 mmHg 55%
09:00 +23°C° 0 mm 4 mps 619 mmHg 48%
10:00 +26°C° 0 mm 4 mps 619 mmHg 42%
11:00 +28°C° 0 mm 4 mps 620 mmHg 35%
12:00 +29°C° 0 mm 4 mps 619 mmHg 33%
13:00 +29°C° 0 mm 4 mps 619 mmHg 32%
14:00 +30°C° 0 mm 5 mps 618 mmHg 30%
15:00 +29°C° 0 mm 5 mps 618 mmHg 33%
16:00 +28°C° 0 mm 5 mps 618 mmHg 36%
17:00 +26°C° 0 mm 6 mps 618 mmHg 39%
18:00 +25°C° 0 mm 5 mps 618 mmHg 47%
19:00 +22°C° 0 mm 4 mps 618 mmHg 55%
20:00 +20°C° 0 mm 4 mps 618 mmHg 63%
21:00 +19°C° 0 mm 3 mps 618 mmHg 67%
22:00 +19°C° 0 mm 3 mps 618 mmHg 71%
23:00 +18°C° 0 mm 3 mps 618 mmHg 75%

17 June, Thursday

Time Temperature Precipitation Wind Pressure Humidity
00:00 +18°C° 0 mm 2 mps 618 mmHg 77%
01:00 +17°C° 0 mm 2 mps 617 mmHg 79%
02:00 +17°C° 0 mm 2 mps 617 mmHg 81%
03:00 +17°C° 0 mm 2 mps 617 mmHg 80%
04:00 +17°C° 0 mm 2 mps 617 mmHg 79%
05:00 +18°C° 0 mm 2 mps 617 mmHg 79%
06:00 +19°C° 0 mm 2 mps 617 mmHg 73%
07:00 +20°C° 0 mm 3 mps 618 mmHg 67%
08:00 +21°C° 0 mm 3 mps 619 mmHg 62%
09:00 +22°C° 0.1 mm 4 mps 619 mmHg 59%
10:00 +23°C° 0.1 mm 4 mps 618 mmHg 56%
11:00 +23°C° 0.1 mm 5 mps 618 mmHg 53%
12:00 +25°C° 0 mm 5 mps 618 mmHg 52%
13:00 +25°C° 0 mm 5 mps 618 mmHg 51%
14:00 +25°C° 0 mm 5 mps 617 mmHg 50%
15:00 +25°C° 0 mm 5 mps 617 mmHg 51%
16:00 +25°C° 0 mm 5 mps 617 mmHg 51%
17:00 +23°C° 0 mm 5 mps 617 mmHg 52%
18:00 +22°C° 0 mm 4 mps 617 mmHg 58%
19:00 +20°C° 0 mm 4 mps 617 mmHg 64%
20:00 +19°C° 0 mm 3 mps 617 mmHg 70%
21:00 +18°C° 0 mm 3 mps 617 mmHg 74%
22:00 +18°C° 0 mm 2 mps 618 mmHg 78%
23:00 +17°C° 0 mm 2 mps 618 mmHg 82%

18 June, Friday

Time Temperature Precipitation Wind Pressure Humidity
00:00 +17°C° 0 mm 2 mps 617 mmHg 84%
01:00 +16°C° 0 mm 2 mps 617 mmHg 86%
02:00 +16°C° 0 mm 2 mps 617 mmHg 87%
03:00 +16°C° 0 mm 2 mps 617 mmHg 87%
04:00 +16°C° 0 mm 2 mps 617 mmHg 87%
05:00 +16°C° 0 mm 2 mps 617 mmHg 87%
06:00 +17°C° 0 mm 2 mps 617 mmHg 79%
07:00 +19°C° 0 mm 3 mps 618 mmHg 71%
08:00 +21°C° 0 mm 3 mps 618 mmHg 63%
09:00 +22°C° 0 mm 3 mps 618 mmHg 57%
10:00 +25°C° 0 mm 4 mps 618 mmHg 51%
11:00 +26°C° 0 mm 4 mps 618 mmHg 45%
12:00 +27°C° 0 mm 4 mps 618 mmHg 42%
13:00 +28°C° 0 mm 4 mps 618 mmHg 40%
14:00 +28°C° 0 mm 4 mps 617 mmHg 38%
15:00 +27°C° 0.1 mm 4 mps 617 mmHg 41%
16:00 +26°C° 0.1 mm 4 mps 617 mmHg 45%
17:00 +25°C° 0.1 mm 4 mps 617 mmHg 49%
18:00 +24°C° 0.8 mm 3 mps 617 mmHg 58%
19:00 +21°C° 0.8 mm 3 mps 617 mmHg 67%
20:00 +20°C° 0.8 mm 2 mps 617 mmHg 76%
21:00 +19°C° 0.6 mm 2 mps 617 mmHg 78%
22:00 +19°C° 0.6 mm 2 mps 618 mmHg 81%
23:00 +19°C° 0.6 mm 1 mps 618 mmHg 83%
Show more

We Need Your Consent

Meteoprog and our Service Providers may store and access personal data such as cookies, device identifiers or other similar technologies on your device and process such data to personalise content and ads, as well as provide social media features and to analyse the traffic.

  • Store and/or access information on your device

    Cookies, device identifiers or other information can be stored or accessed on your device for the purposes indicated above.

  • Personalised ads and content, ad and content measurement, audience insights, and products development

    Ads and content can be personalised based on a profile. More data can be added to better personalise ads and content. Ad and content performance can be measured. Insights about the audience who saw the ads and content can be derived. Such data can be used to develop or improve user’s experience, systems and software.

By clicking ‘I Agree’ you will allow the use of indicated cookies, device identifiers, web beacons or other similar technologies. Your settings can be changed in the browser on your device.

For certain purposes, legitimate interests may be relied on, rather than consent. You can read more about this in our Privacy and Cookie Policy.